,,Stat1,,Stat2,,Stat3,,Stat4,,Wind1,,Wind1,
time,status,PR1M_SUM,status,RH1M_AVG,status,SR1M_AVG,status,TA1M_AVG,status,W1dAve1m,status,W1sAve1m,
2000-01-02, 00:01:00,VALID,0,VALID,99.6811,VALID,0.0679233,VALID,19.8054,VALID,229,VALID,0,
2000-01-02, 00:02:00,VALID,0,VALID,99.6976,VALID,0.101885,VALID,19.789,VALID,230,VALID,0,
2000-01-02, 00:03:00,VALID,0,VALID,99.7014,VALID,0.101885,VALID,19.7693,VALID,231,VALID,0,
2000-01-02, 00:04:00,VALID,0,VALID,99.7294,VALID,0.101885,VALID,19.7499,VALID,239,VALID,0,
2000-01-02, 00:05:00,VALID,0,VALID,99.7459,VALID,0.0849042,VALID,19.7631,VALID,230,VALID,0,
2000-01-02, 00:06:00,VALID,0,VALID,99.7675,VALID,0.0849042,VALID,19.7596,VALID,230,VALID,0,
2000-01-02, 00:07:00,VALID,0,VALID,99.7803,VALID,0.101885,VALID,19.7559,VALID,230,VALID,0,
2000-01-02, 00:08:00,VALID,0,VALID,99.7777,VALID,0.0679233,VALID,19.7629,VALID,230,VALID,0,
2000-01-02, 00:09:00,VALID,0,VALID,99.7892,VALID,0.0849042,VALID,19.7696,VALID,230,VALID,0,
2000-01-02, 00:10:00,VALID,0,VALID,99.7879,VALID,0.0849042,VALID,19.7793,VALID,230,VALID,0,
2000-01-02, 00:11:00,VALID,0,VALID,99.8095,VALID,0.0849042,VALID,19.7857,VALID,230,VALID,0,
2000-01-02, 00:12:00,VALID,0,VALID,99.8248,VALID,0.0679233,VALID,19.8081,VALID,231,VALID,0,
2000-01-02, 00:13:00,VALID,0,VALID,99.8464,VALID,0.101885,VALID,19.8272,VALID,231,VALID,0,
2000-01-02, 00:14:00,VALID,0,VALID,99.8324,VALID,0.0509425,VALID,19.8439,VALID,241,VALID,0,
2000-01-02, 00:15:00,VALID,0,VALID,99.8337,VALID,0.101885,VALID,19.8568,VALID,242,VALID,0,
2000-01-02, 00:16:00,VALID,0,VALID,99.8578,VALID,0.0339617,VALID,19.8641,VALID,242,VALID,0,
2000-01-02, 00:17:00,VALID,0,VALID,99.8184,VALID,-0.0169808,VALID,19.8713,VALID,242,VALID,0,
2000-01-02, 00:18:01,VALID,0,VALID,99.7841,VALID,0,VALID,19.8556,VALID,242,VALID,0,
2000-01-02, 00:19:00,VALID,0,VALID,99.793,VALID,0,VALID,19.8285,VALID,242,VALID,0,
2000-01-02, 00:20:00,VALID,0,VALID,99.8044,VALID,-0.0169808,VALID,19.826,VALID,242,VALID,0,
2000-01-02, 00:21:00,VALID,0,VALID,99.7968,VALID,-0.0169808,VALID,19.7997,VALID,241,VALID,0,
2000-01-02, 00:22:00,VALID,0,VALID,99.7815,VALID,-0.0169808,VALID,19.79,VALID,241,VALID,0,
2000-01-02, 00:23:00,VALID,0,VALID,99.7866,VALID,-0.0169808,VALID,19.7676,VALID,241,VALID,0,
2000-01-02, 00:24:00,VALID,0,VALID,99.8133,VALID,0,VALID,19.777,VALID,241,VALID,0,
2000-01-02, 00:25:00,VALID,0,VALID,99.8311,VALID,-0.0169808,VALID,19.7805,VALID,241,VALID,0,
2000-01-02, 00:26:00,VALID,0,VALID,99.8616,VALID,0,VALID,19.7967,VALID,241,VALID,0,
2000-01-02, 00:27:00,VALID,0,VALID,99.8604,VALID,0,VALID,19.8128,VALID,241,VALID,0,
2000-01-02, 00:28:00,VALID,0,VALID,99.8489,VALID,0,VALID,19.8126,VALID,241,VALID,0,
2000-01-02, 00:29:00,VALID,0,VALID,99.8337,VALID,0,VALID,19.7997,VALID,241,VALID,0,
2000-01-02, 00:30:00,VALID,0,VALID,99.821,VALID,0,VALID,19.7897,VALID,241,VALID,0,
2000-01-02, 00:31:00,VALID,0,VALID,99.8057,VALID,0,VALID,19.7671,VALID,241,VALID,0,
2000-01-02, 00:32:00,VALID,0,VALID,99.807,VALID,0.0169808,VALID,19.7641,VALID,241,VALID,0,
2000-01-02, 00:33:00,VALID,0,VALID,99.7955,VALID,-0.0339617,VALID,19.7584,VALID,236,VALID,0,
2000-01-02, 00:34:00,VALID,0,VALID,99.8019,VALID,0,VALID,19.745,VALID,212,VALID,0,
2000-01-02, 00:35:00,VALID,0,VALID,99.7879,VALID,-0.0169808,VALID,19.7253,VALID,197,VALID,0,
2000-01-02, 00:36:00,VALID,0,VALID,99.7841,VALID,0,VALID,19.7054,VALID,184,VALID,0,
2000-01-02, 00:37:00,VALID,0,VALID,99.7854,VALID,-0.0169808,VALID,19.693,VALID,181,VALID,0,
2000-01-02, 00:38:00,VALID,0,VALID,99.807,VALID,0,VALID,19.6731,VALID,179,VALID,0,
2000-01-02, 00:39:00,VALID,0,VALID,99.8095,VALID,0,VALID,19.6771,VALID,179,VALID,0,
2000-01-02, 00:40:00,VALID,0,VALID,99.8184,VALID,0.0169808,VALID,19.6704,VALID,189,VALID,0,
2000-01-02, 00:41:00,VALID,0,VALID,99.8235,VALID,0.0169808,VALID,19.6639,VALID,189,VALID,0,
2000-01-02, 00:42:00,VALID,0,VALID,99.8299,VALID,-0.0169808,VALID,19.6542,VALID,219,VALID,0,
2000-01-02, 00:43:00,VALID,0,VALID,99.8299,VALID,0,VALID,19.6408,VALID,227,VALID,0,
2000-01-02, 00:44:00,VALID,0,VALID,99.8273,VALID,0.0339617,VALID,19.6383,VALID,227,VALID,0,
2000-01-02, 00:45:00,VALID,0,VALID,99.8324,VALID,0.0169808,VALID,19.6184,VALID,227,VALID,0,
2000-01-02, 00:46:00,VALID,0,VALID,99.8413,VALID,0,VALID,19.6154,VALID,227,VALID,0,
2000-01-02, 00:47:00,VALID,0,VALID,99.8553,VALID,0,VALID,19.6286,VALID,227,VALID,0,
2000-01-02, 00:48:00,VALID,0,VALID,99.8706,VALID,0,VALID,19.638,VALID,216,VALID,0,
2000-01-02, 00:49:00,VALID,0,VALID,99.8718,VALID,0,VALID,19.645,VALID,181,VALID,0,
2000-01-02, 00:50:00,VALID,0,VALID,99.8833,VALID,0.0169808,VALID,19.645,VALID,122,VALID,0,
2000-01-02, 00:51:00,VALID,0,VALID,99.8667,VALID,0,VALID,19.645,VALID,98,VALID,0,
2000-01-02, 00:52:00,VALID,0,VALID,99.8591,VALID,0,VALID,19.5995,VALID,98,VALID,0,
2000-01-02, 00:53:00,VALID,0,VALID,99.8553,VALID,-0.0169808,VALID,19.5799,VALID,97,VALID,0,
2000-01-02, 00:54:00,VALID,0,VALID,99.8604,VALID,0,VALID,19.5572,VALID,97,VALID,0,
2000-01-02, 00:55:00,VALID,0,VALID,99.8464,VALID,0,VALID,19.5348,VALID,97,VALID,0,
2000-01-02, 00:56:00,VALID,0,VALID,99.8566,VALID,-0.0169808,VALID,19.5159,VALID,97,VALID,0,
2000-01-02, 00:57:00,VALID,0,VALID,99.8591,VALID,0,VALID,19.5028,VALID,97,VALID,0,
2000-01-02, 00:58:00,VALID,0,VALID,99.8566,VALID,0,VALID,19.4764,VALID,97,VALID,0,
2000-01-02, 00:59:00,VALID,0,VALID,99.8515,VALID,0,VALID,19.464,VALID,97,VALID,0,
2000-01-02, 01:00:00,VALID,0,VALID,99.8451,VALID,0,VALID,19.4379,VALID,97,VALID,0,
2000-01-02, 01:01:00,VALID,0,VALID,99.8438,VALID,-0.0169808,VALID,19.4287,VALID,97,VALID,0,
2000-01-02, 01:02:00,VALID,0,VALID,99.8553,VALID,-0.0339617,VALID,19.4192,VALID,97,VALID,0,
2000-01-02, 01:03:00,VALID,0,VALID,99.8718,VALID,-0.0339617,VALID,19.4225,VALID,97,VALID,0,
2000-01-02, 01:04:00,VALID,0,VALID,99.91,VALID,-0.0339617,VALID,19.4421,VALID,97,VALID,0,
2000-01-02, 01:05:00,VALID,0,VALID,99.9163,VALID,-0.0339617,VALID,19.4714,VALID,97,VALID,0,
2000-01-02, 01:06:00,VALID,0,VALID,99.9278,VALID,-0.0169808,VALID,19.4608,VALID,97,VALID,0,
2000-01-02, 01:07:00,VALID,0,VALID,99.9468,VALID,-0.0339617,VALID,19.4801,VALID,97,VALID,0,
2000-01-02, 01:08:00,VALID,0,VALID,99.9735,VALID,-0.0679233,VALID,19.5199,VALID,97,VALID,0,
2000-01-02, 01:09:00,VALID,0,VALID,99.9947,VALID,-0.0679233,VALID,19.5356,VALID,97,VALID,0,
2000-01-02, 01:10:00,VALID,0,VALID,99.9845,VALID,-0.0339617,VALID,19.5552,VALID,97,VALID,0,
2000-01-02, 01:11:00,VALID,0,VALID,99.9959,VALID,-0.0509425,VALID,19.5647,VALID,97,VALID,0,
2000-01-02, 01:12:00,VALID,0,VALID,99.999,VALID,-0.0339617,VALID,19.5811,VALID,167,VALID,0,
2000-01-02, 01:13:00,VALID,0,VALID,99.9908,VALID,-0.0169808,VALID,19.5838,VALID,229,VALID,0,
2000-01-02, 01:14:00,VALID,0,VALID,99.999,VALID,-0.0509425,VALID,19.5935,VALID,252,VALID,0,
2000-01-02, 01:15:00,VALID,0,VALID,99.9786,VALID,-0.0339617,VALID,19.5938,VALID,252,VALID,0,
2000-01-02, 01:16:00,VALID,0,VALID,99.9837,VALID,-0.0509425,VALID,19.5811,VALID,252,VALID,0,
2000-01-02, 01:17:00,VALID,0,VALID,99.9947,VALID,-0.0679233,VALID,19.5841,VALID,252,VALID,0,
2000-01-02, 01:18:00,VALID,0,VALID,99.9967,VALID,-0.0509425,VALID,19.5938,VALID,252,VALID,0,
2000-01-02, 01:19:00,VALID,0,VALID,99.9964,VALID,-0.101885,VALID,19.6072,VALID,252,VALID,0,
2000-01-02, 01:20:00,VALID,0,VALID,100,VALID,-0.0339617,VALID,19.6067,VALID,252,VALID,0,
2000-01-02, 01:21:00,VALID,0,VALID,100,VALID,-0.0169808,VALID,19.6263,VALID,252,VALID,0,
2000-01-02, 01:22:00,VALID,0,VALID,100,VALID,-0.0169808,VALID,19.6333,VALID,252,VALID,0,
2000-01-02, 01:23:00,VALID,0,VALID,100,VALID,-0.0509425,VALID,19.6495,VALID,252,VALID,0,
2000-01-02, 01:24:00,VALID,0,VALID,100,VALID,-0.0509425,VALID,19.642,VALID,252,VALID,0,
2000-01-02, 01:25:00,VALID,0,VALID,100,VALID,-0.0509425,VALID,19.6587,VALID,252,VALID,0,
2000-01-02, 01:26:00,VALID,0,VALID,100,VALID,-0.0339617,VALID,19.6547,VALID,252,VALID,0,
2000-01-02, 01:27:00,VALID,0,VALID,100,VALID,-0.0679233,VALID,19.6617,VALID,252,VALID,0,
2000-01-02, 01:28:00,VALID,0,VALID,100,VALID,-0.0339617,VALID,19.6681,VALID,252,VALID,0,
2000-01-02, 01:29:00,VALID,0,VALID,100,VALID,-0.0509425,VALID,19.6714,VALID,252,VALID,0,
2000-01-02, 01:30:00,VALID,0,VALID,100,VALID,-0.0679233,VALID,19.6776,VALID,252,VALID,0,
2000-01-02, 01:31:00,VALID,0,VALID,100,VALID,-0.0509425,VALID,19.6778,VALID,252,VALID,0,
2000-01-02, 01:32:00,VALID,0,VALID,100,VALID,-0.0339617,VALID,19.6751,VALID,252,VALID,0,
2000-01-02, 01:33:00,VALID,0,VALID,100,VALID,-0.0849042,VALID,19.6718,VALID,252,VALID,0,
2000-01-02, 01:34:00,VALID,0,VALID,100,VALID,-0.0509425,VALID,19.6589,VALID,252,VALID,0,
2000-01-02, 01:35:00,VALID,0,VALID,100,VALID,-0.0679233,VALID,19.6617,VALID,252,VALID,0,
2000-01-02, 01:36:00,VALID,0,VALID,100,VALID,-0.0849042,VALID,19.6748,VALID,252,VALID,0,
2000-01-02, 01:37:00,VALID,0,VALID,100,VALID,-0.0849042,VALID,19.6651,VALID,252,VALID,0,
2000-01-02, 01:38:00,VALID,0,VALID,100,VALID,-0.0849042,VALID,19.6684,VALID,237,VALID,0,
2000-01-02, 01:39:00,VALID,0,VALID,100,VALID,-0.101885,VALID,19.6681,VALID,182,VALID,0,
2000-01-02, 01:40:00,VALID,0,VALID,100,VALID,-0.101885,VALID,19.6783,VALID,153,VALID,0,
2000-01-02, 01:41:00,VALID,0,VALID,100,VALID,-0.0849042,VALID,19.6681,VALID,148,VALID,0,
2000-01-02, 01:42:00,VALID,0,VALID,100,VALID,-0.0849042,VALID,19.6716,VALID,148,VALID,0,
2000-01-02, 01:43:00,VALID,0,VALID,100,VALID,-0.0679233,VALID,19.6487,VALID,145,VALID,0,
2000-01-02, 01:44:00,VALID,0,VALID,100,VALID,-0.0849042,VALID,19.6199,VALID,144,VALID,0,
2000-01-02, 01:45:00,VALID,0,VALID,99.9967,VALID,-0.0679233,VALID,19.6037,VALID,144,VALID,0,
2000-01-02, 01:46:00,VALID,0,VALID,99.9977,VALID,-0.0169808,VALID,19.5774,VALID,145,VALID,0,
2000-01-02, 01:47:01,VALID,0,VALID,100,VALID,-0.0849042,VALID,19.5677,VALID,144,VALID,0,
2000-01-02, 01:48:00,VALID,0,VALID,99.999,VALID,-0.0339617,VALID,19.5423,VALID,145,VALID,0,
2000-01-02, 01:49:00,VALID,0,VALID,100,VALID,-0.0509425,VALID,19.4958,VALID,145,VALID,0,
2000-01-02, 01:50:00,VALID,0,VALID,99.9969,VALID,0,VALID,19.4898,VALID,144,VALID,0,
2000-01-02, 01:51:00,VALID,0,VALID,99.9944,VALID,-0.0509425,VALID,19.4704,VALID,141,VALID,0,
2000-01-02, 01:52:00,VALID,0,VALID,99.9957,VALID,-0.0849042,VALID,19.4389,VALID,145,VALID,0,
2000-01-02, 01:53:00,VALID,0,VALID,99.9941,VALID,-0.0169808,VALID,19.4123,VALID,152,VALID,0,
2000-01-02, 01:54:00,VALID,0,VALID,100,VALID,-0.0169808,VALID,19.4128,VALID,152,VALID,0,
2000-01-02, 01:55:00,VALID,0,VALID,100,VALID,-0.0339617,VALID,19.406,VALID,152,VALID,0,
2000-01-02, 01:56:00,VALID,0,VALID,100,VALID,-0.0509425,VALID,19.3765,VALID,152,VALID,0,
2000-01-02, 01:57:00,VALID,0,VALID,100,VALID,-0.0509425,VALID,19.3998,VALID,151,VALID,0,
2000-01-02, 01:58:01,VALID,0,VALID,100,VALID,-0.0679233,VALID,19.3904,VALID,149,VALID,0,
2000-01-02, 01:59:00,VALID,0,VALID,100,VALID,-0.0849042,VALID,19.3901,VALID,149,VALID,0,
2000-01-02, 02:00:00,VALID,0,VALID,100,VALID,-0.0339617,VALID,19.3705,VALID,148,VALID,0,
2000-01-02, 02:01:00,VALID,0,VALID,100,VALID,-0.0169808,VALID,19.3476,VALID,144,VALID,0,
2000-01-02, 02:02:00,VALID,0,VALID,100,VALID,-0.0169808,VALID,19.3506,VALID,138,VALID,0,
2000-01-02, 02:03:00,VALID,0,VALID,100,VALID,-0.0169808,VALID,19.3735,VALID,131,VALID,0,
2000-01-02, 02:04:00,VALID,0,VALID,100,VALID,-0.0339617,VALID,19.3971,VALID,133,VALID,0,
2000-01-02, 02:05:00,VALID,0,VALID,100,VALID,-0.0169808,VALID,19.3996,VALID,134,VALID,0,
2000-01-02, 02:06:00,VALID,0,VALID,100,VALID,0,VALID,19.4098,VALID,137,VALID,0,
2000-01-02, 02:07:00,VALID,0,VALID,100,VALID,0,VALID,19.4125,VALID,137,VALID,0,
2000-01-02, 02:08:00,VALID,0,VALID,100,VALID,0,VALID,19.409,VALID,137,VALID,0,
2000-01-02, 02:09:01,VALID,0,VALID,100,VALID,0,VALID,19.3961,VALID,137,VALID,0,
2000-01-02, 02:10:00,VALID,0,VALID,100,VALID,-0.0169808,VALID,19.4095,VALID,137,VALID,0,
2000-01-02, 02:11:00,VALID,0,VALID,100,VALID,0,VALID,19.4093,VALID,137,VALID,0,
2000-01-02, 02:12:00,VALID,0,VALID,100,VALID,-0.0339617,VALID,19.4192,VALID,137,VALID,0,
2000-01-02, 02:13:00,VALID,0,VALID,100,VALID,0,VALID,19.3964,VALID,138,VALID,0,
2000-01-02, 02:14:00,VALID,0,VALID,100,VALID,0,VALID,19.3998,VALID,147,VALID,0,
2000-01-02, 02:15:00,VALID,0,VALID,100,VALID,0,VALID,19.3931,VALID,172,VALID,0,
2000-01-02, 02:16:00,VALID,0,VALID,100,VALID,-0.0169808,VALID,19.4093,VALID,176,VALID,0,
2000-01-02, 02:17:00,VALID,0,VALID,100,VALID,-0.0169808,VALID,19.4229,VALID,170,VALID,0,
2000-01-02, 02:18:00,VALID,0,VALID,100,VALID,-0.0169808,VALID,19.4157,VALID,166,VALID,0,
2000-01-02, 02:19:01,VALID,0,VALID,100,VALID,0,VALID,19.4453,VALID,166,VALID,0,
2000-01-02, 02:20:01,VALID,0,VALID,100,VALID,-0.0339617,VALID,19.4453,VALID,166,VALID,0,
2000-01-02, 02:21:00,VALID,0,VALID,100,VALID,-0.0509425,VALID,19.4453,VALID,166,VALID,0,
2000-01-02, 02:22:00,VALID,0,VALID,100,VALID,0,VALID,19.4421,VALID,166,VALID,0,
2000-01-02, 02:23:00,VALID,0,VALID,100,VALID,-0.0509425,VALID,19.4386,VALID,166,VALID,0,
2000-01-02, 02:24:00,VALID,0,VALID,100,VALID,-0.0509425,VALID,19.4356,VALID,166,VALID,0,
2000-01-02, 02:25:00,VALID,0,VALID,100,VALID,-0.0339617,VALID,19.4257,VALID,166,VALID,0,
2000-01-02, 02:26:00,VALID,0,VALID,100,VALID,-0.0339617,VALID,19.4354,VALID,166,VALID,0,
2000-01-02, 02:27:00,VALID,0,VALID,100,VALID,-0.0509425,VALID,19.455,VALID,166,VALID,0,
2000-01-02, 02:28:00,VALID,0,VALID,100,VALID,-0.0849042,VALID,19.4488,VALID,158,VALID,0,
2000-01-02, 02:29:00,VALID,0,VALID,100,VALID,-0.0169808,VALID,19.4289,VALID,154,VALID,0,
2000-01-02, 02:30:00,VALID,0,VALID,100,VALID,-0.0339617,VALID,19.3998,VALID,154,VALID,0,
2000-01-02, 02:31:01,VALID,0,VALID,100,VALID,-0.0339617,VALID,19.3809,VALID,154,VALID,0,
2000-01-02, 02:32:00,VALID,0,VALID,100,VALID,0,VALID,19.3416,VALID,154,VALID,0,
2000-01-02, 02:33:00,VALID,0,VALID,100,VALID,-0.0509425,VALID,19.3198,VALID,154,VALID,0,
2000-01-02, 02:34:00,VALID,0,VALID,100,VALID,-0.0509425,VALID,19.2835,VALID,174,VALID,0,
2000-01-02, 02:35:00,VALID,0,VALID,100,VALID,-0.0339617,VALID,19.2646,VALID,174,VALID,0,
2000-01-02, 02:36:00,VALID,0,VALID,100,VALID,-0.0849042,VALID,19.2352,VALID,187,VALID,0,
2000-01-02, 02:37:00,VALID,0,VALID,100,VALID,-0.0509425,VALID,19.2089,VALID,188,VALID,0,
2000-01-02, 02:38:00,VALID,0,VALID,100,VALID,-0.0169808,VALID,19.18,VALID,188,VALID,0,
2000-01-02, 02:39:00,VALID,0,VALID,100,VALID,-0.0509425,VALID,19.1544,VALID,188,VALID,0,
2000-01-02, 02:40:00,VALID,0,VALID,100,VALID,-0.0509425,VALID,19.1614,VALID,188,VALID,0,
2000-01-02, 02:41:01,VALID,0,VALID,100,VALID,-0.0339617,VALID,19.145,VALID,188,VALID,0,
2000-01-02, 02:42:01,VALID,0,VALID,100,VALID,-0.0849042,VALID,19.1191,VALID,188,VALID,0,
2000-01-02, 02:43:00,VALID,0,VALID,100,VALID,-0.0509425,VALID,19.0803,VALID,188,VALID,0,
2000-01-02, 02:44:00,VALID,0,VALID,100,VALID,-0.0339617,VALID,19.0704,VALID,188,VALID,0,
2000-01-02, 02:45:00,VALID,0,VALID,100,VALID,-0.0339617,VALID,19.0736,VALID,188,VALID,0,
2000-01-02, 02:46:00,VALID,0,VALID,100,VALID,-0.0679233,VALID,19.0833,VALID,188,VALID,0,
2000-01-02, 02:47:00,VALID,0,VALID,100,VALID,-0.0169808,VALID,19.0958,VALID,188,VALID,0,
2000-01-02, 02:48:00,VALID,0,VALID,100,VALID,-0.0169808,VALID,19.1223,VALID,188,VALID,0,
2000-01-02, 02:49:00,VALID,0,VALID,100,VALID,-0.0339617,VALID,19.1253,VALID,188,VALID,0,
2000-01-02, 02:50:00,VALID,0,VALID,100,VALID,-0.0339617,VALID,19.1611,VALID,188,VALID,0,
2000-01-02, 02:51:01,VALID,0,VALID,100,VALID,-0.0339617,VALID,19.183,VALID,188,VALID,0,
2000-01-02, 02:52:01,VALID,0,VALID,100,VALID,-0.0339617,VALID,19.1992,VALID,188,VALID,0,
2000-01-02, 02:53:01,VALID,0,VALID,100,VALID,-0.0509425,VALID,19.2193,VALID,188,VALID,0,
2000-01-02, 02:54:00,VALID,0,VALID,100,VALID,-0.0169808,VALID,19.2352,VALID,188,VALID,0,
2000-01-02, 02:55:00,VALID,0,VALID,100,VALID,-0.0339617,VALID,19.2646,VALID,188,VALID,0,
2000-01-02, 02:56:00,VALID,0,VALID,100,VALID,-0.0169808,VALID,19.277,VALID,188,VALID,0,
2000-01-02, 02:57:00,VALID,0,VALID,100,VALID,-0.0509425,VALID,19.3128,VALID,188,VALID,0,
2000-01-02, 02:58:00,VALID,0,VALID,100,VALID,-0.0169808,VALID,19.3227,VALID,188,VALID,0,
2000-01-02, 02:59:00,VALID,0,VALID,100,VALID,-0.0339617,VALID,19.3195,VALID,188,VALID,0,
2000-01-02, 03:00:00,VALID,0,VALID,100,VALID,-0.0339617,VALID,19.3126,VALID,188,VALID,0,
2000-01-02, 03:01:00,VALID,0,VALID,100,VALID,-0.0339617,VALID,19.2994,VALID,188,VALID,0,
2000-01-02, 03:02:00,VALID,0,VALID,100,VALID,0.0169808,VALID,19.3079,VALID,188,VALID,0,
2000-01-02, 03:03:00,VALID,0,VALID,100,VALID,0.0169808,VALID,19.321,VALID,188,VALID,0,
2000-01-02, 03:04:00,VALID,0,VALID,100,VALID,0.0169808,VALID,19.3143,VALID,188,VALID,0,
2000-01-02, 03:05:00,VALID,0,VALID,100,VALID,0.0169808,VALID,19.3118,VALID,188,VALID,0,
2000-01-02, 03:06:00,VALID,0,VALID,100,VALID,0,VALID,19.3049,VALID,188,VALID,0,
2000-01-02, 03:07:00,VALID,0,VALID,100,VALID,0.0339617,VALID,19.3084,VALID,191,VALID,0,
2000-01-02, 03:08:00,VALID,0,VALID,100,VALID,0.0169808,VALID,19.3016,VALID,206,VALID,0,
2000-01-02, 03:09:00,VALID,0,VALID,100,VALID,0.0169808,VALID,19.3019,VALID,216,VALID,0,
2000-01-02, 03:10:00,VALID,0,VALID,100,VALID,0.0169808,VALID,19.2952,VALID,220,VALID,0,
2000-01-02, 03:11:00,VALID,0,VALID,100,VALID,0.0339617,VALID,19.276,VALID,223,VALID,0,
2000-01-02, 03:12:00,VALID,0,VALID,100,VALID,0.0169808,VALID,19.2532,VALID,220,VALID,0,
2000-01-02, 03:13:01,VALID,0,VALID,100,VALID,0,VALID,19.2661,VALID,229,VALID,0,
2000-01-02, 03:14:01,VALID,0,VALID,100,VALID,0.0169808,VALID,19.2599,VALID,229,VALID,0,
2000-01-02, 03:15:00,VALID,0,VALID,100,VALID,0,VALID,19.2338,VALID,229,VALID,0,
2000-01-02, 03:16:00,VALID,0,VALID,100,VALID,0,VALID,19.2375,VALID,230,VALID,0,
2000-01-02, 03:17:00,VALID,0,VALID,100,VALID,0,VALID,19.2343,VALID,242,VALID,0,
2000-01-02, 03:18:00,VALID,0,VALID,100,VALID,0.0169808,VALID,19.234,VALID,246,VALID,0,
2000-01-02, 03:19:00,VALID,0,VALID,100,VALID,0,VALID,19.2432,VALID,246,VALID,0,
2000-01-02, 03:20:00,VALID,0,VALID,100,VALID,0.0169808,VALID,19.2537,VALID,246,VALID,0,
2000-01-02, 03:21:00,VALID,0,VALID,100,VALID,0,VALID,19.2566,VALID,222,VALID,0,
2000-01-02, 03:22:00,VALID,0,VALID,100,VALID,0.0339617,VALID,19.2629,VALID,218,VALID,0,
2000-01-02, 03:23:00,VALID,0,VALID,100,VALID,0.0679233,VALID,19.2755,VALID,202,VALID,0,
2000-01-02, 03:24:01,VALID,0,VALID,100,VALID,0.0169808,VALID,19.2852,VALID,202,VALID,0,
2000-01-02, 03:25:01,VALID,0,VALID,100,VALID,0,VALID,19.276,VALID,202,VALID,0,
2000-01-02, 03:26:00,VALID,0,VALID,100,VALID,0,VALID,19.2529,VALID,204,VALID,0,
2000-01-02, 03:27:00,VALID,0,VALID,100,VALID,0.0169808,VALID,19.2566,VALID,213,VALID,0,
2000-01-02, 03:28:00,VALID,0,VALID,100,VALID,0,VALID,19.2405,VALID,223,VALID,0,
2000-01-02, 03:29:00,VALID,0,VALID,100,VALID,0.0169808,VALID,19.2405,VALID,232,VALID,0,
2000-01-02, 03:30:00,VALID,0,VALID,100,VALID,0,VALID,19.237,VALID,220,VALID,0,
2000-01-02, 03:31:00,VALID,0,VALID,100,VALID,0,VALID,19.2537,VALID,224,VALID,0,
2000-01-02, 03:32:00,VALID,0,VALID,100,VALID,-0.0679233,VALID,19.2549,VALID,218,VALID,0,
2000-01-02, 03:33:00,VALID,0,VALID,100,VALID,-0.0849042,VALID,19.2546,VALID,217,VALID,0,
2000-01-02, 03:34:00,VALID,0,VALID,100,VALID,-0.101885,VALID,19.2611,VALID,217,VALID,0,
2000-01-02, 03:35:00,VALID,0,VALID,100,VALID,-0.101885,VALID,19.2514,VALID,203,VALID,0,
2000-01-02, 03:36:00,VALID,0,VALID,100,VALID,-0.0679233,VALID,19.2452,VALID,183,VALID,0,
2000-01-02, 03:37:00,VALID,0,VALID,100,VALID,-0.0849042,VALID,19.2486,VALID,182,VALID,0,
2000-01-02, 03:38:00,VALID,0,VALID,100,VALID,-0.101885,VALID,19.2322,VALID,189,VALID,0,
2000-01-02, 03:39:00,VALID,0,VALID,100,VALID,-0.0679233,VALID,19.2223,VALID,204,VALID,0,
2000-01-02, 03:40:00,VALID,0,VALID,100,VALID,-0.0679233,VALID,19.2322,VALID,199,VALID,0,
2000-01-02, 03:41:00,VALID,0,VALID,100,VALID,-0.0679233,VALID,19.232,VALID,195,VALID,0,
2000-01-02, 03:42:00,VALID,0,VALID,100,VALID,-0.0679233,VALID,19.2454,VALID,195,VALID,0,
2000-01-02, 03:43:00,VALID,0,VALID,100,VALID,-0.0849042,VALID,19.2415,VALID,195,VALID,0,
2000-01-02, 03:44:00,VALID,0,VALID,100,VALID,-0.0509425,VALID,19.2551,VALID,195,VALID,0,
2000-01-02, 03:45:00,VALID,0,VALID,100,VALID,-0.0679233,VALID,19.2673,VALID,195,VALID,0,
2000-01-02, 03:46:01,VALID,0,VALID,100,VALID,-0.0339617,VALID,19.2832,VALID,198,VALID,0,
2000-01-02, 03:47:00,VALID,0,VALID,100,VALID,0,VALID,19.2984,VALID,190,VALID,0,
2000-01-02, 03:48:00,VALID,0,VALID,100,VALID,0.0509425,VALID,19.3086,VALID,189,VALID,0,
2000-01-02, 03:49:00,VALID,0,VALID,100,VALID,0.0339617,VALID,19.2855,VALID,189,VALID,0,
2000-01-02, 03:50:00,VALID,0,VALID,100,VALID,0.0169808,VALID,19.282,VALID,187,VALID,0,
2000-01-02, 03:51:00,VALID,0,VALID,100,VALID,0.0169808,VALID,19.2949,VALID,185,VALID,0,
2000-01-02, 03:52:00,VALID,0.2,VALID,100,VALID,0.0339617,VALID,19.3049,VALID,185,VALID,0,
2000-01-02, 03:53:00,VALID,0,VALID,100,VALID,0.0169808,VALID,19.324,VALID,185,VALID,0,
2000-01-02, 03:54:00,VALID,0,VALID,100,VALID,0,VALID,19.3245,VALID,185,VALID,0,
2000-01-02, 03:55:00,VALID,0,VALID,100,VALID,0.0169808,VALID,19.321,VALID,183,VALID,0,
2000-01-02, 03:56:00,VALID,0,VALID,100,VALID,0.0509425,VALID,19.3275,VALID,181,VALID,0,
2000-01-02, 03:57:01,VALID,0,VALID,100,VALID,0.0339617,VALID,19.3275,VALID,180,VALID,0,
2000-01-02, 03:58:00,VALID,0,VALID,100,VALID,0.0509425,VALID,19.3143,VALID,180,VALID,0,
2000-01-02, 03:59:00,VALID,0,VALID,100,VALID,0.0339617,VALID,19.3046,VALID,177,VALID,0,
2000-01-02, 04:00:00,VALID,0,VALID,100,VALID,0.0169808,VALID,19.2952,VALID,174,VALID,0,
2000-01-02, 04:01:00,VALID,0,VALID,100,VALID,0.0169808,VALID,19.289,VALID,174,VALID,0,
2000-01-02, 04:02:00,VALID,0,VALID,100,VALID,-0.0169808,VALID,19.2962,VALID,183,VALID,0,
2000-01-02, 04:03:00,VALID,0,VALID,100,VALID,-0.0679233,VALID,19.2966,VALID,188,VALID,0,
2000-01-02, 04:04:00,VALID,0,VALID,100,VALID,-0.0509425,VALID,19.2872,VALID,186,VALID,0,
2000-01-02, 04:05:00,VALID,0,VALID,100,VALID,-0.0339617,VALID,19.2768,VALID,186,VALID,0,
2000-01-02, 04:06:00,VALID,0,VALID,100,VALID,-0.0849042,VALID,19.2869,VALID,186,VALID,0,
2000-01-02, 04:07:00,VALID,0,VALID,100,VALID,-0.0339617,VALID,19.28,VALID,204,VALID,0,
2000-01-02, 04:08:00,VALID,0,VALID,100,VALID,-0.0509425,VALID,19.2835,VALID,214,VALID,0,
2000-01-02, 04:09:00,VALID,0,VALID,100,VALID,-0.0509425,VALID,19.3068,VALID,212,VALID,0,
2000-01-02, 04:10:00,VALID,0,VALID,100,VALID,-0.0679233,VALID,19.2932,VALID,211,VALID,0,
2000-01-02, 04:11:00,VALID,0,VALID,100,VALID,0,VALID,19.3029,VALID,185,VALID,0,
2000-01-02, 04:12:00,VALID,0,VALID,100,VALID,-0.0169808,VALID,19.313,VALID,189,VALID,0,
2000-01-02, 04:13:00,VALID,0,VALID,100,VALID,-0.0339617,VALID,19.2996,VALID,217,VALID,0,
2000-01-02, 04:14:00,VALID,0,VALID,100,VALID,0,VALID,19.2962,VALID,201,VALID,0,
2000-01-02, 04:15:00,VALID,0,VALID,100,VALID,0,VALID,19.2964,VALID,193,VALID,0,
2000-01-02, 04:16:00,VALID,0,VALID,100,VALID,-0.0339617,VALID,19.2897,VALID,195,VALID,0,
2000-01-02, 04:17:00,VALID,0,VALID,100,VALID,-0.0339617,VALID,19.2966,VALID,210,VALID,0,
2000-01-02, 04:18:00,VALID,0,VALID,100,VALID,-0.0169808,VALID,19.2996,VALID,219,VALID,0,
2000-01-02, 04:19:00,VALID,0,VALID,100,VALID,0,VALID,19.2959,VALID,211,VALID,0,
2000-01-02, 04:20:00,VALID,0,VALID,100,VALID,-0.0339617,VALID,19.316,VALID,217,VALID,0,
2000-01-02, 04:21:00,VALID,0,VALID,100,VALID,-0.0169808,VALID,19.3093,VALID,215,VALID,0,
2000-01-02, 04:22:00,VALID,0,VALID,100,VALID,-0.0169808,VALID,19.3029,VALID,217,VALID,0,
2000-01-02, 04:23:00,VALID,0,VALID,100,VALID,-0.0509425,VALID,19.2996,VALID,213,VALID,0,
2000-01-02, 04:24:00,VALID,0,VALID,100,VALID,-0.0509425,VALID,19.3029,VALID,213,VALID,0,
2000-01-02, 04:25:00,VALID,0,VALID,100,VALID,0,VALID,19.3096,VALID,221,VALID,0,
2000-01-02, 04:26:00,VALID,0,VALID,100,VALID,-0.0679233,VALID,19.3063,VALID,231,VALID,0,
2000-01-02, 04:27:00,VALID,0,VALID,100,VALID,-0.0509425,VALID,19.3093,VALID,225,VALID,0,
2000-01-02, 04:28:00,VALID,0,VALID,100,VALID,-0.0339617,VALID,19.3096,VALID,230,VALID,0,